Flag for Estonia Weather past 2 weeks in Narva, Estonia

Now
47 °F

Clear.


Feels Like: 47 °F
Forecast: 46 / 69 °F
Wind: 2 mph from Southwest

Location: Narva

Current Time: May 26, 2015 at 12:58:18 AM

Latest Report: May 25, 2015 at 11:00 PM


Visibility: 13 mi

Pressure: 29.94 "Hg

Humidity: 72%

Dew point: 39 °F

Location of NarvaLocation

Historic Weather in Narva — Graph

°F

Narva temperature yesterday

Maximum temperature yesterday: 68 °F (at 4:00 PM)
Minimum temperature yesterday: 46 °F (at 5:00 AM)
Average temperature yesterday: 58 °F

Past Weeks' High & Low Weather Summary

 TemperatureHumidityPressure
High68 °F (May 25, 4:00 PM)100% (May 12, 2:00 AM)30.23 "Hg (May 12, 2:00 AM)
Low31 °F (May 16, 4:00 AM)26% (May 25, 6:00 PM)29.47 "Hg (May 13, 8:00 AM)
Average50 °F72%29.85 "Hg
* Reported May 10 11:00 PM — May 25 11:00 PM, Narva, Weather by CustomWeather, © 2015

Note: Actual official high and low records may vary slightly from our data, if they occured in-between our weather recording intervals... More about our weather records

Advertising

Narva weather history for previous 24 hours

 ConditionsComfort  
Time TempWeatherWind HumidityBarometerVisibility
11:00 PM
Mon, May 25
47 °FClear.2 mph72%29.94 "Hg12 mi
10:00 PM53 °FClear.2 mph56%29.93 "Hg12 mi
9:00 PM61 °FSunny.2 mph39%29.92 "Hg12 mi
8:00 PM62 °FSunny.2 mph35%29.92 "Hg12 mi
7:00 PM67 °FSunny.6 mph27%29.93 "Hg12 mi
6:00 PM67 °FSunny.6 mph26%29.93 "Hg12 mi
5:00 PM68 °FSunny.6 mph28%29.94 "Hg12 mi
4:00 PM68 °FPassing clouds.7 mph29%29.95 "Hg12 mi
3:00 PM66 °FSunny.7 mph30%29.95 "Hg12 mi
2:00 PM66 °FSunny.8 mph31%29.96 "Hg12 mi
1:00 PM65 °FSunny.8 mph39%29.96 "Hg12 mi
12:00 PM64 °FSunny.8 mph36%29.97 "Hg12 mi
11:00 AM64 °FSunny.8 mph40%29.97 "Hg12 mi
10:00 AM59 °FSunny.5 mph54%29.98 "Hg12 mi
9:00 AM56 °FSunny.3 mph57%29.99 "Hg12 mi
8:00 AM53 °FSunny.2 mph53%29.99 "Hg12 mi
7:00 AM50 °FSunny.3 mph65%29.99 "Hg12 mi
5:00 AM46 °FScattered clouds.3 mph77%29.98 "Hg12 mi
4:00 AM47 °FOvercast.3 mph76%29.98 "Hg12 mi
3:00 AM47 °FPassing clouds.5 mph77%29.98 "Hg12 mi
2:00 AM48 °FOvercast.3 mph77%29.97 "Hg12 mi
1:00 AM48 °FPassing clouds.2 mph79%29.98 "Hg12 mi
Weather by CustomWeather, © 2015

See weather overviewHow to use our weather pages